Weather Service Report


379 
ASUS42 KCAE 251210
RWRCAE
REGIONAL WEATHER ROUNDUP
NATIONAL WEATHER SERVICE COLUMBIA SC
800 AM EDT SAT APR 25 2015

NOTE: "FAIR" INDICATES FEW OR NO CLOUDS BELOW 12,000 FEET WITH NO
SIGNIFICANT WEATHER AND/OR OBSTRUCTIONS TO VISIBILITY.

NOT ALL STATIONS ARE QUALITY CONTROLLED BY THE NATIONAL 
WEATHER SERVICE. USE DATA WITH CAUTION...ESPECIALLY 
DEWPOINT OBSERVATIONS.

SCZ001>056-GAZ040-063>065-077-251300-
...UPSTATE SOUTH CAROLINA...
  
CITY           SKY/WX    TMP DP  RH WIND       PRES   REMARKS
ANDERSON       RAIN      56  54  93 SW3       29.93R FOG              
6HR MIN TEMP:  55; 6HR MAX TEMP:  59; 6HR PCP:  0.12;                

LIBERTY        RAIN     N/A N/A N/A W3        29.92R                  
SPARTANBURG    RAIN      55  55 100 SW7       29.91R                  
CLEMSON        RAIN      56  52  86 CALM      29.93R FOG              
6HR MIN TEMP:  56; 6HR MAX TEMP:  61; 6HR PCP:  0.13;                

GREENVILLE     RAIN      55  52  89 SW6       29.94R FOG              
6HR MIN TEMP:  55; 6HR MAX TEMP:  61; 6HR PCP:  0.08;                

GREENWOOD      LGT RAIN  56  54  93 CALM      29.92F                  
6HR MIN TEMP:  56; 6HR MAX TEMP:  62; 6HR PCP:  0.08;                

GREER          LGT RAIN  54  53  97 SW10      29.91R FOG              
6HR MIN TEMP:  54; 6HR MAX TEMP:  60; 6HR PCP:  0.08;                

ROCK HILL      LGT RAIN  56  52  86 SW9       29.91R                  
6HR MIN TEMP:  53; 6HR MAX TEMP:  57; 6HR PCP: TRACE;                

CHESTER        RAIN      55  54  94 S3        29.92S                  
LAURENS        LGT RAIN  54  54 100 CALM      29.92S                  


...CENTRAL SOUTH CAROLINA...
  
CITY           SKY/WX    TMP DP  RH WIND       PRES   REMARKS
COLUMBIA APT   LGT RAIN  57  52  83 CALM      29.93S                  
6HR MIN TEMP:  57; 6HR MAX TEMP:  61; 6HR PCP:  0.07;                

COLUMBIA OWENS LGT RAIN  57  53  86 CALM      29.95S                  
6HR MIN TEMP:  56; 6HR MAX TEMP:  61; 6HR PCP:  0.06;                

DARLINGTON     CLOUDY    57  50  77 SW8       29.93S                  
6HR MIN TEMP:  55; 6HR MAX TEMP:  57;                                

FLORENCE       LGT RAIN  57  51  80 SW5       29.93S                  
6HR MIN TEMP:  56; 6HR MAX TEMP:  57; 6HR PCP:  0.01;                

MCENTIRE ANGB  LGT RAIN  55  54  94 E1        29.94R                  
6HR MIN TEMP:  54; 6HR MAX TEMP:  58; 6HR PCP:  0.06;                

ORANGEBURG     CLOUDY    57  53  86 CALM      29.94S                  
6HR MIN TEMP:  57; 6HR MAX TEMP:  58; 6HR PCP:  0.02;                

SUMTER SHAW    LGT RAIN  57  54  91 MISG      29.93R                  
6HR MIN TEMP:  56; 6HR MAX TEMP:  59; 6HR PCP:  0.10;                

NEWBERRY       RAIN      54  54 100 S3        29.95S                  
AIKEN          LGT RAIN  55  50  82 CALM      29.95S                  
BARNWELL       CLOUDY    61  55  82 SE3       29.94S                  
MANNING        LGT RAIN  57  50  77 CALM      29.95S                  
CAMDEN         LGT RAIN  55  54  94 S6        29.95R                  
LANCASTER      LGT RAIN  55  55 100 SW8       29.92R                  
WINNSBORO      LGT RAIN  54  54 100 S8        29.93S                  


...EASTERN AND COASTAL SOUTH CAROLINA...
  
CITY           SKY/WX    TMP DP  RH WIND       PRES   REMARKS
MYRTLE BEACH   CLOUDY    63  52  67 SW3       29.96                   
N MYRTLE BCH   CLOUDY    65  55  70 SW13      29.94S                  
6HR MIN TEMP:  52; 6HR MAX TEMP:  65;                                

CONWAY         LGT RAIN  55  54  94 CALM      29.94F                  
MARION         LGT RAIN  55  50  82 S6        29.93F                  
HARTSVILLE     CLOUDY    54  52  94 SW7       29.94R                  
FLORENCE       LGT RAIN  57  51  80 SW5       29.93S                  
6HR MIN TEMP:  56; 6HR MAX TEMP:  57; 6HR PCP:  0.01;                

DARLINGTON     CLOUDY    57  50  77 SW8       29.93S                  
6HR MIN TEMP:  55; 6HR MAX TEMP:  57;                                

CHARLESTON APT CLOUDY    63  58  83 CALM      29.95R                  
6HR MIN TEMP:  58; 6HR MAX TEMP:  63; 6HR PCP: TRACE;                

MOUNT PLEASANT FAIR      61  61 100 MISG      29.95S FOG              
WALTERBORO     CLOUDY    59  54  82 CALM      29.95S                  
BEAUFORT       CLOUDY    68  61  78 CALM      29.94R                  
6HR MIN TEMP:  66; 6HR MAX TEMP:  68;                                



...EASTERN GEORGIA...
  
CITY           SKY/WX    TMP DP  RH WIND       PRES   REMARKS
AUGUSTA BUSH F LGT RAIN  57  53  86 SE9       29.89F                  
6HR MIN TEMP:  56; 6HR MAX TEMP:  61; 6HR PCP:  0.02;                

AUGUSTA DANIEL LGT RAIN  59  53  80 E7        29.90F                  
6HR MIN TEMP:  59; 6HR MAX TEMP:  63; 6HR PCP:  0.02;                

THOMSON        CLOUDY    60  58  94 CALM      29.94F                  
6HR MIN TEMP:  60; 6HR MAX TEMP:  65;                                

WASHINGTON     RAIN      61  61 100 CALM      29.91R                  
CLAXTON        LGT RAIN  61  59  94 E5        29.92F                  
SYLVANIA       CLOUDY    60  57  89 CALM      29.94R                  
6HR MIN TEMP:  59; 6HR MAX TEMP:  61;                                

STATESBORO       N/A     61  56  84 CALM      29.93S                  
6HR MIN TEMP:  61; 6HR MAX TEMP:  62;                                

SAVANNAH       CLOUDY    68  60  75 CALM      29.94R                  
6HR MIN TEMP:  63; 6HR MAX TEMP:  68;                                



...SOUTHERN NORTH CAROLINA...
  
CITY           SKY/WX    TMP DP  RH WIND       PRES   REMARKS
CHARLOTTE      CLOUDY    58  47  66 SW13      29.90R                  
6HR MIN TEMP:  55; 6HR MAX TEMP:  59; 6HR PCP: TRACE;                

MONROE         LGT RAIN  58  48  69 SW14      29.90R                  
6HR MIN TEMP:  56; 6HR MAX TEMP:  58; 6HR PCP: TRACE;                

WADESBORO      CLOUDY    60  46  59 SW8       29.90R                  
6HR MIN TEMP:  55; 6HR MAX TEMP:  60;                                

ROCKINGHAM     CLOUDY    58  46  65 S8        29.91R                  
6HR MIN TEMP:  53; 6HR MAX TEMP:  58;                                

RUTHERFORDTON  RAIN      53  51  94 S5        29.90R                  
6HR MIN TEMP:  51; 6HR MAX TEMP:  55; 6HR PCP:  0.02;                

ASHEVILLE      LGT RAIN  54  49  83 S8        29.89S                  
6HR MIN TEMP:  50; 6HR MAX TEMP:  54; 6HR PCP:  0.04;                


$$

Return to Home page


Western Regional Climate Center, wrcc@dri.edu